CZ-6A DEB

Satellite information

Favourite Embed

Satellite Type and Status

DEBRISIN ORBIT

Key statistics

Satellite CZ-6A DEB at a glance.

Uptime

274

Days in orbit

Revolutions

≈ 14.4

Per day

Orbit

LEO

Low Earth Orbit

Inclination

88.8

Latest

Satellite identification and parameters

Extended collection of information and parameters for CZ-6A DEB.

Object identification

Identified? True

Debris? True

Object name: CZ-6A DEB

International designator: 2024-140XB

Object number (NORAD): 61386

Object ID (CCSDS): 61386

Country: PEOPLES REPUBLIC OF CHINA (PRC)

Current information (Y/N): Y

RCS size: SMALL

Orbital parameters

Period: 99.923 minutes

Inclination: 88.7987 deg

SMA: 7132.973 km

Apoapsis: 767.081 km

Periapsis: 742.595 km

RAAN: 313.0277 deg

Eccentricy: 0.0017164

Argument of periapsis: 209.1458 deg

Mean anomaly: 150.8788 deg

Mean motion: 14.41109202 rev/day

Mean motion (dot): 0.00009227 rev/day2

B* drag term: 0.0028542 1/REarth

Two-line elements (TLE)

Creation date: May 6, 2025, 3:54 a.m.

Reference frame: TEME

Reference center: EARTH

Epoch: May 5, 2025, 10:04 p.m. UTC

TLE line 0: 0 CZ-6A DEB

TLE line 1: 1 61386U 24140XB 25125.91985433 .00009227 00000-0 28542-2 0 9995

TLE line 2: 2 61386 88.7987 313.0277 0017164 209.1458 150.8788 14.41109202 34899

Live tracking on map

Real-time ground track for satellite CZ-6A DEB.

In-orbit conjunctions

A list of the most updated potential collisions computed for object CZ-6A DEB.

Target Orbit TCA Probability of collision Miss distance Type
SL-12 R/B(AUX MOTOR) MEO 2025-03-04 03:53:17 0.0003158066 384.0 (m) ROCKET BODY
DELTA 1 DEB SSO 2025-01-27 04:22:51 0.0002350258 388.0 (m) DEBRIS
COSMOS 886 DEB LEO 2024-12-09 13:35:20 0.000353743 731.0 (m) DEBRIS
COSMOS 1110 LEO 2024-11-14 08:25:57 0.0005333536 111.0 (m) PAYLOAD
FENGYUN 1C DEB SSO 2024-10-10 22:51:40 0.0002360623 351.0 (m) DEBRIS

Associated space launch

18 Low Earth Orbit communication satellites with Ku, Q and V band payloads for the G60 constellation operated by Shanghai Spacecom Satellite Technology (SSST) with funding backed by the Shanghai local government. Initial constellation will consist of 1296 satellites by 2027 with long term plans to expand it to 12000 satellites.

CZ-6A DEB was lifted into orbit during the mission ‘Long March 6A | G60 Polar Group 01’, on board a Long March 6A space rocket.

The launch took place on Aug. 6, 2024, 6:42 a.m. from Launch Complex 9A.

For more information about the launch, click the button.

Launch to space Long March 6A | G60 Polar Group 01
Long March 6A | G60 Polar Group 01

Agency: N/A

Status: Launch Successful

Launch date: Aug. 6, 2024, 6:42 a.m. UTC

Rocket: Long March 6A

Launch pad: Launch Complex 9A

Location: Taiyuan Satellite Launch Center, People's Republic of China

...

Latest news about this satellite

News about space launch
Brightness of first Chinese broadband constellation satellites alarms astronomers

The first satellites of a Chinese broadband constellation are significantly brighter than those of Western systems, posing a new challenge for astronomers.

News about space launch
Chinese rocket stage breaks up into cloud of more than 700 pieces of space debris

HELSINKI — A Chinese Long March 6A rocket’s upper stage has fragmented into a cloud of over 700 pieces of space debris, adding to concerns about long-term orbital safety. China […]

News about space launch
China's Thousand Sails Megaconstellation Kicks Off with Dangerous Debris Field

China's Thousand Sails Megaconstellation Kicks Off with Dangerous Debris Field


Newsletter sign-up

Weekly statistics, charts and insights to help you stay on top of the space industry.